Location: Ashtead
(51.3000°N, 0.3000°W)
Time: 04:27:43
(UTC+00:00)

Cosmos 1833 Rocket - Pass Details

Date: 26 September 2023
Orbit: 830 x 841 km, 71.0° (Epoch: 29 November)

Event Time Altitude Azimuth Distance (km) Brightness Sun altitude
Exits shadow 01:19:08 32° 43° (NE) 1,388 4.2 -36.6°
Drops below altitude 10° 01:22:09 10° 34° (NE) 2,451 5.9 -36.4°
Sets 01:24:36 0° 32° (NNE) 3,390 6.8 -36.2°
